Weather History for Andrews, NC

Change the Weather History Date:

Saturday, March 30, 2013

  Actual Average (KTYS) Record (KTYS)
Temperature  
Mean Temperature 52 °F 54 °F  
Max Temperature 64 °F 66 °F 84 °F (1998)
Min Temperature 40 °F 43 °F 22 °F (1964)
Degree Days  
Heating Degree Days 13 11  
Month to date heating degree days 449  
Since 1 July heating degree days 3345  
Cooling Degree Days 0 0  
Month to date cooling degree days 0  
Year to date cooling degree days 0  
Growing Degree Days 2 (Base 50)    
Moisture  
Dew Point 41 °F    
Average Humidity 76    
Maximum Humidity 99    
Minimum Humidity 37    
Precipitation  
Precipitation 0.15 in 0.15 in 5.56 in (1886)
Month to date precipitation 4.20  
Year to date precipitation 12.78  
Snow  
Snow 0.00 in 0.00 in - ()
Month to date snowfall 0.9  
Since 1 July snowfall 6.0  
Snow Depth -    
Sea Level Pressure  
Sea Level Pressure 30.13 in    
Wind  
Wind Speed 2 mph (West)    
Max Wind Speed 13 mph    
Max Gust Speed 16 mph    
Visibility 8 miles    
Events Rain    
T = Trace of Precipitation, MM = Missing Value Source: NWS Daily Summary

Daily Weather History Graph

Daily Weather History Graph

Search for Another Location

Airport:

Trip Planner

Search our weather history database for the weather conditions in past years. The results will help you decide how hot, cold, wet, or windy it might be!

Date:

Astronomy

Mar. 30, 2013 Rise Set
Actual Time 7:24 AM EDT 7:55 PM EDT
Civil Twilight 6:59 AM EDT 8:21 PM EDT
Nautical Twilight 6:29 AM EDT 8:51 PM EDT
Astronomical Twilight 5:58 AM EDT 9:21 PM EDT
Moon 11:51 PM EDT (3/30) 9:27 AM EDT (3/30)
Length of Visible Light 13h 21m
Length of Day
12h 30m
Waning Gibbous, 86% of the Moon is Illuminated
Mar 30
Waning Gibbous
Apr 3
Last Quarter
Apr 10
New
Apr 18
First Quarter
Apr 25
Full

Hourly Weather History & Observations

Time (EDT) Temp. Windchill Dew Point Humidity Pressure Visibility Wind Dir Wind Speed Gust Speed Precip Events Conditions
12:15 AM 41.0 °F - 40.1 °F 97% 30.22 in 10.0 mi Calm Calm - N/A   Overcast
12:35 AM 41.2 °F 39.2 °F 39.9 °F 95% 30.21 in 10.0 mi NNE 3.5 mph - N/A Rain Light Rain
12:55 AM 41.4 °F 39.4 °F 40.5 °F 97% 30.20 in 7.0 mi NNE 3.5 mph - N/A   Light Drizzle
1:15 AM 41.4 °F - 40.1 °F 95% 30.20 in 10.0 mi Calm Calm - N/A   Light Drizzle
1:35 AM 41.4 °F - 40.1 °F 95% 30.20 in 10.0 mi Calm Calm - N/A   Overcast
1:55 AM 41.2 °F - 40.3 °F 97% 30.20 in 10.0 mi Calm Calm - N/A Rain Light Rain
2:15 AM 41.0 °F - 40.3 °F 97% 30.20 in 7.0 mi Calm Calm - N/A Rain Light Rain
2:35 AM 41.0 °F - 40.1 °F 97% 30.20 in 7.0 mi Calm Calm - N/A   Overcast
2:55 AM 41.0 °F - 40.1 °F 97% 30.19 in 5.0 mi Calm Calm - N/A Rain Light Rain
3:15 AM 41.0 °F - 40.6 °F 99% 30.19 in 5.0 mi Calm Calm - N/A   Light Drizzle
3:35 AM 41.5 °F 39.6 °F 40.3 °F 95% 30.19 in 7.0 mi SE 3.5 mph - 0.01 in Rain Light Rain
3:55 AM 41.0 °F - 40.3 °F 97% 30.19 in 5.0 mi Calm Calm - 0.02 in Rain Rain
4:15 AM 41.7 °F 38.8 °F 40.3 °F 95% 30.19 in 7.0 mi NNE 4.6 mph - 0.01 in Rain Light Rain
4:35 AM 41.9 °F - 40.5 °F 95% 30.18 in 10.0 mi Calm Calm - 0.01 in   Drizzle
4:55 AM 41.2 °F - 40.3 °F 97% 30.18 in 7.0 mi Calm Calm - 0.01 in   Overcast
5:15 AM 41.2 °F - 40.3 °F 97% 30.18 in 7.0 mi Calm Calm - N/A   Overcast
5:35 AM 41.2 °F - 40.5 °F 97% 30.18 in 7.0 mi Calm Calm - N/A   Overcast
5:55 AM 41.9 °F - 40.5 °F 95% 30.17 in 10.0 mi Calm Calm - N/A   Overcast
6:15 AM 41.4 °F - 40.5 °F 97% 30.17 in 7.0 mi Calm Calm - N/A   Overcast
6:35 AM 41.0 °F 39.0 °F 40.3 °F 97% 30.17 in 7.0 mi NNE 3.5 mph - N/A   Overcast
6:55 AM 41.4 °F - 40.6 °F 97% 30.17 in 7.0 mi Calm Calm - N/A   Overcast
7:15 AM 40.8 °F - 40.3 °F 98% 30.18 in 5.0 mi Calm Calm - N/A   Overcast
7:35 AM 40.8 °F - 40.3 °F 98% 30.18 in 4.0 mi Calm Calm - N/A   Overcast
7:55 AM 41.2 °F - 40.5 °F 97% 30.18 in 5.0 mi Calm Calm - N/A   Overcast
8:15 AM 40.8 °F - 40.3 °F 98% 30.18 in 4.0 mi Calm Calm - N/A   Overcast
8:35 AM 41.7 °F - 41.2 °F 98% 30.19 in 5.0 mi Calm Calm - N/A   Overcast
8:55 AM 42.3 °F - 41.4 °F 97% 30.19 in 7.0 mi Calm Calm - N/A   Overcast
9:15 AM 43.7 °F - 41.7 °F 93% 30.19 in 10.0 mi Calm Calm - N/A   Overcast
9:35 AM 44.8 °F - 42.3 °F 91% 30.19 in 10.0 mi Calm Calm - N/A   Mostly Cloudy
9:55 AM 46.4 °F - 42.4 °F 86% 30.19 in 10.0 mi Calm Calm - N/A   Mostly Cloudy
10:15 AM 47.7 °F - 42.8 °F 83% 30.18 in 10.0 mi Calm Calm - N/A   Overcast
10:35 AM 48.4 °F - 42.4 °F 80% 30.18 in 10.0 mi Calm Calm - N/A   Overcast
10:55 AM 50.0 °F - 43.7 °F 79% 30.18 in 10.0 mi Calm Calm - N/A   Overcast
11:15 AM 51.3 °F - 43.2 °F 74% 30.17 in 10.0 mi Calm Calm - N/A   Scattered Clouds
11:35 AM 52.5 °F - 38.8 °F 60% 30.17 in 10.0 mi Calm Calm - N/A   Clear
11:55 AM 53.8 °F - 41.9 °F 64% 30.17 in 10.0 mi Calm Calm - N/A   Scattered Clouds
12:15 PM 55.4 °F - 40.5 °F 57% 30.16 in 10.0 mi Calm Calm - N/A   Scattered Clouds
12:35 PM 56.3 °F - 40.8 °F 56% 30.16 in 10.0 mi WNW 3.5 mph - N/A   Scattered Clouds
12:55 PM 57.9 °F - 41.0 °F 53% 30.15 in 10.0 mi WSW 8.1 mph - N/A   Scattered Clouds
1:15 PM 58.3 °F - 39.4 °F 49% 30.14 in 10.0 mi WNW 4.6 mph - N/A   Scattered Clouds
1:35 PM 59.2 °F - 40.1 °F 49% 30.13 in 10.0 mi WNW 5.8 mph - N/A   Clear
1:55 PM 60.1 °F - 40.3 °F 48% 30.12 in 10.0 mi NW 4.6 mph - N/A   Clear
2:15 PM 60.8 °F - 39.4 °F 45% 30.11 in 10.0 mi WSW 6.9 mph - N/A   Clear
2:35 PM 61.5 °F - 39.4 °F 44% 30.11 in 10.0 mi Calm Calm - N/A   Clear
2:55 PM 62.1 °F - 39.9 °F 44% 30.10 in 10.0 mi West 10.4 mph - N/A   Scattered Clouds
3:15 PM 61.7 °F - 37.8 °F 41% 30.09 in 10.0 mi WSW 3.5 mph 9.2 mph N/A   Scattered Clouds
3:35 PM 62.8 °F - 38.7 °F 41% 30.08 in 10.0 mi SW 8.1 mph - N/A   Scattered Clouds
3:55 PM 63.3 °F - 38.5 °F 40% 30.08 in 10.0 mi West 8.1 mph - N/A   Scattered Clouds
4:15 PM 64.2 °F - 38.7 °F 39% 30.08 in 10.0 mi SSW 3.5 mph 9.2 mph N/A   Scattered Clouds
4:35 PM 64.4 °F - 37.2 °F 37% 30.07 in 10.0 mi West 6.9 mph - N/A   Clear
4:55 PM 63.7 °F - 38.8 °F 40% 30.06 in 10.0 mi WSW 6.9 mph - N/A   Clear
5:15 PM 63.7 °F - 36.7 °F 37% 30.05 in 10.0 mi West 9.2 mph - N/A   Clear
5:35 PM 62.8 °F - 37.0 °F 38% 30.05 in 10.0 mi West 5.8 mph - N/A   Clear
5:55 PM 62.6 °F - 38.7 °F 41% 30.04 in 10.0 mi West 6.9 mph - N/A   Clear
6:15 PM 62.4 °F - 40.3 °F 44% 30.04 in 10.0 mi West 3.5 mph - N/A   Clear
6:35 PM 61.9 °F - 39.7 °F 44% 30.04 in 10.0 mi West 3.5 mph - N/A   Clear
6:55 PM 61.0 °F - 41.7 °F 49% 30.04 in 10.0 mi Calm Calm - N/A   Clear
7:15 PM 61.2 °F - 39.7 °F 45% 30.04 in 10.0 mi WSW 3.5 mph - N/A   Scattered Clouds
7:35 PM 58.8 °F - 39.0 °F 48% 30.03 in 10.0 mi Calm Calm - N/A   Mostly Cloudy
7:55 PM 55.2 °F - 41.0 °F 59% 30.02 in 10.0 mi Calm Calm - N/A   Mostly Cloudy
8:15 PM 53.4 °F - 41.0 °F 63% 30.02 in 10.0 mi Calm Calm - N/A   Mostly Cloudy
8:35 PM 55.4 °F - 39.9 °F 56% 30.03 in 10.0 mi Calm Calm - N/A   Overcast
8:55 PM 53.4 °F - 44.6 °F 72% 30.05 in 10.0 mi West 4.6 mph - N/A Rain Light Rain
9:15 PM 54.5 °F - 46.0 °F 73% 30.07 in 10.0 mi WSW 12.7 mph 16.1 mph N/A Rain Rain
9:35 PM 52.3 °F - 48.6 °F 87% 30.08 in 7.0 mi WSW 5.8 mph - N/A Rain Rain
9:55 PM 51.3 °F - 49.3 °F 93% 30.08 in 7.0 mi Calm Calm - 0.01 in Rain Rain
10:15 PM 51.1 °F - 50.0 °F 96% 30.08 in 5.0 mi Calm Calm - 0.02 in Rain Rain
10:35 PM 50.5 °F - 50.0 °F 98% 30.07 in 5.0 mi Calm Calm - 0.04 in Rain Rain
10:55 PM 50.9 °F - 50.0 °F 97% 30.06 in 5.0 mi Calm Calm - 0.05 in Rain Rain
11:15 PM 50.4 °F - 49.8 °F 98% 30.06 in 5.0 mi East 3.5 mph - 0.01 in Rain Light Rain
11:35 PM 50.2 °F - 49.5 °F 97% 30.05 in 5.0 mi Calm Calm - 0.05 in Rain Light Rain
11:55 PM 50.2 °F - 49.5 °F 97% 30.03 in 4.0 mi Calm Calm - 0.06 in Rain Rain